When you browse on this site, cookies collect data to enhance your experience and personalize the content and advertising you see.
Visit our Privacy Policy to learn more. By continuing to use the site, you agree to this use of cookies and data.

Hourly Weather Cajuru

Today, 2 July, Thursday

Time Temperature Precipitation Wind Pressure Humidity
00:00 +11°C° 0 mm 0 mps 693 mmHg 88%
01:00 +10°C° 0 mm 0 mps 693 mmHg 89%
02:00 +10°C° 0 mm 0 mps 694 mmHg 90%
03:00 +10°C° 0 mm 0 mps 694 mmHg 92%
04:00 +9°C° 0 mm 0 mps 693 mmHg 92%
05:00 +9°C° 0 mm 0 mps 693 mmHg 92%
06:00 +9°C° 0 mm 0 mps 693 mmHg 92%
07:00 +11°C° 0 mm 0 mps 694 mmHg 83%
08:00 +14°C° 0 mm 1 mps 695 mmHg 74%
09:00 +16°C° 0 mm 1 mps 696 mmHg 65%
10:00 +19°C° 0 mm 1 mps 696 mmHg 57%
11:00 +20°C° 0 mm 2 mps 696 mmHg 48%
12:00 +22°C° 0 mm 3 mps 696 mmHg 40%
13:00 +22°C° 0 mm 3 mps 695 mmHg 38%
14:00 +22°C° 0 mm 3 mps 695 mmHg 37%
15:00 +22°C° 0 mm 3 mps 695 mmHg 35%
16:00 +20°C° 0 mm 2 mps 695 mmHg 41%
17:00 +18°C° 0 mm 2 mps 694 mmHg 48%
18:00 +16°C° 0 mm 2 mps 694 mmHg 55%
19:00 +15°C° 0 mm 1 mps 695 mmHg 56%
20:00 +14°C° 0 mm 0 mps 695 mmHg 57%
21:00 +14°C° 0 mm 0 mps 696 mmHg 57%
22:00 +13°C° 0 mm 0 mps 696 mmHg 58%
23:00 +13°C° 0 mm 0 mps 695 mmHg 58%

Tomorrow, 3 July, Friday

Time Temperature Precipitation Wind Pressure Humidity
00:00 +13°C° 0 mm 0 mps 695 mmHg 59%
01:00 +12°C° 0 mm 0 mps 695 mmHg 61%
02:00 +12°C° 0 mm 0 mps 695 mmHg 63%
03:00 +11°C° 0 mm 0 mps 695 mmHg 66%
04:00 +10°C° 0 mm 0 mps 695 mmHg 68%
05:00 +10°C° 0 mm 0 mps 695 mmHg 70%
06:00 +9°C° 0 mm 0 mps 695 mmHg 72%
07:00 +11°C° 0 mm 0 mps 696 mmHg 65%
08:00 +14°C° 0 mm 1 mps 697 mmHg 59%
09:00 +16°C° 0 mm 1 mps 697 mmHg 52%
10:00 +20°C° 0 mm 1 mps 698 mmHg 46%
11:00 +22°C° 0 mm 1 mps 698 mmHg 39%
12:00 +23°C° 0 mm 0 mps 698 mmHg 32%
13:00 +25°C° 0 mm 1 mps 697 mmHg 33%
14:00 +25°C° 0 mm 1 mps 697 mmHg 33%
15:00 +25°C° 0 mm 2 mps 696 mmHg 34%
16:00 +21°C° 0 mm 2 mps 696 mmHg 41%
17:00 +20°C° 0 mm 1 mps 696 mmHg 48%
18:00 +18°C° 0 mm 1 mps 695 mmHg 55%
19:00 +16°C° 0 mm 1 mps 695 mmHg 59%
20:00 +15°C° 0 mm 1 mps 696 mmHg 63%
21:00 +14°C° 0 mm 1 mps 696 mmHg 67%
22:00 +13°C° 0 mm 1 mps 696 mmHg 68%
23:00 +13°C° 0 mm 1 mps 696 mmHg 69%

Day after tomorrow, 4 July, Saturday

Time Temperature Precipitation Wind Pressure Humidity
00:00 +13°C° 0 mm 1 mps 696 mmHg 70%
01:00 +12°C° 0 mm 1 mps 696 mmHg 71%
02:00 +12°C° 0 mm 1 mps 696 mmHg 71%
03:00 +12°C° 0 mm 1 mps 695 mmHg 72%
04:00 +12°C° 0 mm 1 mps 695 mmHg 72%
05:00 +12°C° 0 mm 1 mps 695 mmHg 73%
06:00 +12°C° 0 mm 1 mps 695 mmHg 74%
07:00 +14°C° 0 mm 1 mps 696 mmHg 68%
08:00 +16°C° 0 mm 2 mps 697 mmHg 63%
09:00 +18°C° 0 mm 2 mps 698 mmHg 58%
10:00 +20°C° 0 mm 2 mps 698 mmHg 52%
11:00 +24°C° 0 mm 2 mps 698 mmHg 46%
12:00 +26°C° 0 mm 2 mps 698 mmHg 40%
13:00 +27°C° 0 mm 2 mps 698 mmHg 38%
14:00 +27°C° 0 mm 2 mps 697 mmHg 36%
15:00 +28°C° 0 mm 2 mps 697 mmHg 34%
16:00 +25°C° 0 mm 1 mps 696 mmHg 42%
17:00 +23°C° 0 mm 1 mps 696 mmHg 49%
18:00 +21°C° 0 mm 1 mps 695 mmHg 57%
19:00 +20°C° 0 mm 1 mps 696 mmHg 60%
20:00 +19°C° 0 mm 1 mps 696 mmHg 63%
21:00 +18°C° 0 mm 1 mps 696 mmHg 66%
22:00 +18°C° 0 mm 1 mps 696 mmHg 68%
23:00 +18°C° 0 mm 1 mps 696 mmHg 70%

5 July, Sunday

Time Temperature Precipitation Wind Pressure Humidity
00:00 +16°C° 0 mm 1 mps 696 mmHg 72%
01:00 +18°C° 0 mm 1 mps 696 mmHg 72%
02:00 +17°C° 0 mm 2 mps 696 mmHg 72%
03:00 +17°C° 0 mm 2 mps 696 mmHg 72%
04:00 +17°C° 0 mm 2 mps 696 mmHg 73%
05:00 +17°C° 0 mm 2 mps 696 mmHg 75%
06:00 +17°C° 0 mm 2 mps 696 mmHg 76%
07:00 +18°C° 0 mm 3 mps 697 mmHg 72%
08:00 +20°C° 0 mm 3 mps 697 mmHg 68%
09:00 +21°C° 0 mm 3 mps 698 mmHg 65%
10:00 +24°C° 0 mm 3 mps 698 mmHg 57%
11:00 +26°C° 0 mm 3 mps 698 mmHg 48%
12:00 +28°C° 0 mm 3 mps 699 mmHg 40%
13:00 +28°C° 0 mm 3 mps 698 mmHg 42%
14:00 +27°C° 0 mm 2 mps 698 mmHg 43%
15:00 +27°C° 0 mm 1 mps 697 mmHg 44%
16:00 +25°C° 0 mm 1 mps 697 mmHg 48%
17:00 +24°C° 0 mm 1 mps 697 mmHg 52%
18:00 +23°C° 0 mm 1 mps 696 mmHg 56%
19:00 +22°C° 0 mm 1 mps 697 mmHg 58%
20:00 +21°C° 0 mm 1 mps 697 mmHg 61%
21:00 +20°C° 0 mm 2 mps 697 mmHg 64%
22:00 +21°C° 0 mm 1 mps 697 mmHg 66%
23:00 +20°C° 0 mm 1 mps 697 mmHg 68%

6 July, Monday

Time Temperature Precipitation Wind Pressure Humidity
00:00 +20°C° 0 mm 1 mps 697 mmHg 70%
01:00 +19°C° 0 mm 1 mps 697 mmHg 72%
02:00 +19°C° 0 mm 1 mps 696 mmHg 75%
03:00 +18°C° 0 mm 1 mps 696 mmHg 77%
04:00 +18°C° 0 mm 1 mps 696 mmHg 78%
05:00 +18°C° 0 mm 1 mps 696 mmHg 80%
06:00 +16°C° 0 mm 1 mps 696 mmHg 81%
07:00 +19°C° 0 mm 1 mps 697 mmHg 74%
08:00 +21°C° 0 mm 1 mps 697 mmHg 66%
09:00 +23°C° 0 mm 1 mps 697 mmHg 59%
10:00 +25°C° 0 mm 2 mps 698 mmHg 51%
11:00 +27°C° 0 mm 2 mps 698 mmHg 44%
12:00 +29°C° 0 mm 2 mps 698 mmHg 37%
13:00 +29°C° 0 mm 2 mps 697 mmHg 35%
14:00 +29°C° 0 mm 2 mps 697 mmHg 34%
15:00 +29°C° 0 mm 2 mps 696 mmHg 33%
16:00 +28°C° 0 mm 2 mps 696 mmHg 38%
17:00 +26°C° 0 mm 1 mps 696 mmHg 43%
18:00 +24°C° 0 mm 1 mps 695 mmHg 48%
19:00 +23°C° 0 mm 1 mps 696 mmHg 51%
20:00 +22°C° 0 mm 1 mps 696 mmHg 53%
21:00 +21°C° 0 mm 1 mps 696 mmHg 56%
22:00 +20°C° 0 mm 1 mps 696 mmHg 59%
23:00 +19°C° 0 mm 1 mps 696 mmHg 61%

7 July, Tuesday

Time Temperature Precipitation Wind Pressure Humidity
00:00 +19°C° 0 mm 1 mps 695 mmHg 64%
01:00 +18°C° 0 mm 1 mps 695 mmHg 65%
02:00 +18°C° 0 mm 1 mps 695 mmHg 66%
03:00 +18°C° 0 mm 1 mps 695 mmHg 67%
04:00 +16°C° 0 mm 1 mps 695 mmHg 68%
05:00 +16°C° 0 mm 1 mps 695 mmHg 69%
06:00 +16°C° 0 mm 1 mps 695 mmHg 69%
07:00 +19°C° 0 mm 1 mps 695 mmHg 63%
08:00 +20°C° 0 mm 2 mps 696 mmHg 57%
09:00 +23°C° 0 mm 2 mps 696 mmHg 51%
10:00 +25°C° 0 mm 2 mps 696 mmHg 45%
11:00 +27°C° 0 mm 3 mps 696 mmHg 40%
12:00 +28°C° 0 mm 3 mps 696 mmHg 34%
13:00 +29°C° 0 mm 3 mps 696 mmHg 34%
14:00 +29°C° 0 mm 3 mps 695 mmHg 33%
15:00 +29°C° 0 mm 3 mps 695 mmHg 32%
16:00 +27°C° 0 mm 2 mps 695 mmHg 39%
17:00 +24°C° 0 mm 2 mps 694 mmHg 45%
18:00 +22°C° 0 mm 1 mps 694 mmHg 52%
19:00 +21°C° 0 mm 1 mps 694 mmHg 55%
20:00 +20°C° 0 mm 1 mps 695 mmHg 58%
21:00 +20°C° 0 mm 1 mps 695 mmHg 60%
22:00 +19°C° 0 mm 1 mps 695 mmHg 62%
23:00 +19°C° 0 mm 1 mps 695 mmHg 64%
Show more